Skip Page Navigation
NASA JPL Caltech
NASA Logo - Jet Propulsion Laboratory + View the NASA Portal
+ Center for Near-Earth Object Studies
JPL Home Earth Solar System Stars & Galaxies Technology
JPL Solar System Dynamics
BODIES ORBITS EPHEMERIDES TOOLS PHYSICAL DATA DISCOVERY FAQ SITE MAP
JPL Small-Body Database Browser
Search: [ help ]  
392319 (2010 EB36)
Classification: Main-belt Asteroid          SPK-ID: 2392319
Ephemeris | Orbit Diagram | Orbital Elements | Mission Design | Physical Parameters | Discovery Circumstances ]

[ hide orbit diagram ]

For accurate long-term ephemerides, please instead use our Horizons system.This orbit viewer was implemented using two-body methods, and hence should not be used for determining accurate long-term trajectories (over several years or decades) or planetary encounter circumstances.


[ revert to old Java-based viewer ]

Orbital Elements at Epoch 2459000.5 (2020-May-31.0) TDB
Reference: JPL 16 (heliocentric ecliptic J2000)
 Element Value Uncertainty (1-sigma)   Units 
e .2030454437539893 1.0301e-07  
a 2.397416778350038 3.0619e-08 au
q 1.910632224726695 2.4279e-07 au
i 23.55077576858604 8.8357e-06 deg
node 183.189535678187 1.8875e-05 deg
peri 55.45763493510083 2.4038e-05 deg
M 232.4863254740674 2.0462e-05 deg
tp 2459480.750690102490
(2021-Sep-23.25069010)
8.393e-05 TDB
period 1355.856531306651
3.71
2.5975e-05
7.112e-08
d
yr
n .2655148178937964 5.0866e-09 deg/d
Q 2.884201331973381 3.6836e-08 au
  Orbit Determination Parameters
   # obs. used (total)      169  
   data-arc span      4439 days (12.15 yr)  
   first obs. used      2007-09-03  
   last obs. used      2019-10-29  
   planetary ephem.      DE431  
   SB-pert. ephem.      SB431-N16  
   condition code      0  
   norm. resid. RMS      .56925  
   source      ORB  
   producer      Otto Matic  
   solution date      2019-Nov-08 13:04:48  

Additional Information
 Earth MOID = .978163 au 
 Jupiter MOID = 2.24173 au 
 T_jup = 3.389 
[ show covariance matrix ]

Ephemeris | Orbit Diagram | Orbital Elements | Mission Design | Physical Parameters | Discovery Circumstances ]

Physical Parameter Table
Parameter Symbol Value Units Sigma Reference Notes
absolute magnitude H 16.7   n/a MPO455784  
diameter diameter 1.136 km 0.210 urn:nasa:pds:neowise_diameters_albedos::2.0[mainbelt] (http://adsabs.harvard.edu/abs/2011ApJ...741...68M)  
geometric albedo albedo 0.286   0.124 urn:nasa:pds:neowise_diameters_albedos::2.0[mainbelt] (http://adsabs.harvard.edu/abs/2011ApJ...741...68M)  

392319 (2010 EB36)          Discovered 2010-Mar-11 by OAM at La Sagra
Reference: Last Updated: 2014-04-17

Alternate Designations
 2010 EB36 = 2007 SN10 
Ephemeris | Orbit Diagram | Orbital Elements | Mission Design | Physical Parameters | Discovery Circumstances ]
ABOUT SSD CREDITS/AWARDS PRIVACY/COPYRIGHT GLOSSARY LINKS
FirstGov 2020-Aug-09 18:44 UT
(server date/time)  
NASA Home Page
Site Manager:   Ryan S. Park
Webmaster  Alan B. Chamberlin